Thomson, GA

4:46 AM EST on December 07, 2016 (GMT -0500)
Thomson-McDuffie County

Weather History for KHQU - October, 2013

Change the Weather History Date:

Friday, October 11, 2013

  Actual Average (KDNL) Record (KDNL)
Temperature  
Mean Temperature 65 °F -  
Max Temperature 82 °F 74 °F 90 °F (2014)
Min Temperature 48 °F 55 °F 42 °F (2000)
Growing Degree Days 15 (Base 50)    
Moisture  
Dew Point 57 °F    
Average Humidity 81    
Maximum Humidity 100    
Minimum Humidity 45    
Precipitation  
Precipitation 0.00 in - - ()
Sea Level Pressure  
Sea Level Pressure 30.03 in    
Wind  
Wind Speed 1 mph (WNW)    
Max Wind Speed 12 mph    
Max Gust Speed -    
Visibility 10 miles    
Events      
Averages and records for this station are not official NWS values.
T = Trace of Precipitation, MM = Missing Value Source: NWS Daily Summary

Daily Weather History Graph

Daily Weather History Graph

Search for Another Location

Airport or City:

Trip Planner

Search our weather history database for the weather conditions in past years. The results will help you decide how hot, cold, wet, or windy it might be!

Date:

Astronomy

Oct. 11, 2013 Rise Set
Actual Time 7:31 AM EDT 7:01 PM EDT
Civil Twilight 7:06 AM EDT 7:25 PM EDT
Nautical Twilight 6:38 AM EDT 7:54 PM EDT
Astronomical Twilight 6:09 AM EDT 8:23 PM EDT
Moon 2:03 PM EDT (10/11) No Moon Set
Length of Visible Light 12h 19m
Length of Day
11h 29m
Waxing Crescent, 47% of the Moon is Illuminated
Oct 11
Waxing Crescent
Oct 11
First Quarter
Oct 18
Full
Oct 26
Last Quarter
Nov 3
New

Hourly Weather History & Observations

Time (EDT) Temp. Heat Index Dew Point Humidity Pressure Visibility Wind Dir Wind Speed Gust Speed Precip Events Conditions
12:15 AM 54.5 °F - 54.5 °F 100% 30.05 in 10.0 mi Calm Calm - N/A   Clear
12:35 AM 53.6 °F - 53.6 °F 100% 30.05 in 10.0 mi Calm Calm - N/A   Scattered Clouds
12:55 AM 52.5 °F - 52.5 °F 100% 30.05 in 10.0 mi Calm Calm - N/A   Scattered Clouds
1:15 AM 52.3 °F - 52.3 °F 100% 30.05 in 10.0 mi Calm Calm - N/A   Scattered Clouds
1:35 AM 53.2 °F - 53.2 °F 100% 30.05 in 10.0 mi Calm Calm - N/A   Clear
1:55 AM 52.7 °F - 52.7 °F 100% 30.05 in 10.0 mi Calm Calm - N/A   Scattered Clouds
2:15 AM 52.2 °F - 52.2 °F 100% 30.05 in 10.0 mi Calm Calm - N/A   Clear
2:55 AM 51.3 °F - 51.3 °F 100% 30.04 in 10.0 mi Calm Calm - N/A   Clear
3:15 AM 51.4 °F - 51.4 °F 100% 30.04 in 10.0 mi Calm Calm - N/A   Clear
3:35 AM 50.5 °F - 50.5 °F 100% 30.03 in 10.0 mi Calm Calm - N/A   Clear
3:55 AM 51.1 °F - 51.1 °F 100% 30.03 in 10.0 mi Calm Calm - N/A   Clear
4:15 AM 49.8 °F - 49.8 °F 100% 30.03 in 10.0 mi Calm Calm - N/A   Clear
4:35 AM 50.0 °F - 50.0 °F 100% 30.03 in 10.0 mi Calm Calm - N/A   Clear
4:55 AM 50.2 °F - 50.2 °F 100% 30.04 in 10.0 mi Calm Calm - N/A   Clear
5:15 AM 50.0 °F - 50.0 °F 100% 30.04 in 10.0 mi Calm Calm - N/A   Clear
5:35 AM 50.0 °F - 50.0 °F 100% 30.04 in 10.0 mi Calm Calm - N/A   Clear
5:55 AM 50.0 °F - 50.0 °F 100% 30.05 in 10.0 mi Calm Calm - N/A   Clear
6:15 AM 48.9 °F - 48.9 °F 100% 30.05 in 10.0 mi Calm Calm - N/A   Clear
6:35 AM 49.1 °F - 49.1 °F 100% 30.06 in 10.0 mi Calm Calm - N/A   Clear
6:55 AM 49.1 °F - 49.1 °F 100% 30.06 in 7.0 mi Calm Calm - N/A   Clear
7:15 AM 49.3 °F - 49.3 °F 100% 30.06 in 10.0 mi Calm Calm - N/A   Clear
7:35 AM 48.9 °F - 48.9 °F 100% 30.06 in 7.0 mi Calm Calm - N/A   Clear
7:55 AM 48.2 °F - 48.2 °F 100% 30.07 in 10.0 mi Calm Calm - N/A   Clear
8:15 AM 50.2 °F - 50.2 °F 100% 30.07 in 10.0 mi Calm Calm - N/A   Clear
8:35 AM 52.9 °F - 52.9 °F 100% 30.07 in 10.0 mi Calm Calm - N/A   Clear
8:55 AM 55.6 °F - 55.6 °F 100% 30.08 in 10.0 mi Calm Calm - N/A   Clear
9:15 AM 59.2 °F - 57.4 °F 94% 30.08 in 10.0 mi North - - N/A   Clear
9:35 AM 61.2 °F - 58.1 °F 90% 30.08 in 10.0 mi Calm Calm - N/A   Clear
9:55 AM 63.7 °F - 59.0 °F 85% 30.08 in 10.0 mi Calm Calm - N/A   Clear
10:15 AM 66.4 °F - 60.3 °F 81% 30.08 in 10.0 mi Calm Calm - N/A   Clear
10:35 AM 68.4 °F - 61.0 °F 77% 30.08 in 10.0 mi Calm Calm - N/A   Clear
10:55 AM 70.7 °F - 61.5 °F 73% 30.08 in 10.0 mi Calm Calm - N/A   Clear
11:15 AM 72.7 °F - 60.6 °F 66% 30.07 in 10.0 mi NW 4.6 mph - N/A   Clear
11:35 AM 73.4 °F - 60.8 °F 65% 30.07 in 10.0 mi WNW 3.5 mph - N/A   Clear
11:55 AM 75.0 °F - 60.8 °F 61% 30.07 in 10.0 mi West 3.5 mph - N/A   Clear
12:15 PM 76.6 °F - 61.0 °F 58% 30.06 in 10.0 mi West 4.6 mph - N/A   Clear
12:35 PM 77.0 °F - 59.7 °F 55% 30.06 in 10.0 mi WNW 3.5 mph - N/A   Clear
12:55 PM 78.8 °F - 58.6 °F 50% 30.06 in 10.0 mi WSW 5.8 mph - N/A   Clear
1:15 PM 79.0 °F - 58.3 °F 49% 30.05 in 10.0 mi WNW 5.8 mph - N/A   Clear
1:35 PM 79.3 °F - 59.2 °F 50% 30.03 in 10.0 mi NW 4.6 mph - N/A   Clear
1:55 PM 80.2 °F 80.9 °F 59.7 °F 49% 30.02 in 10.0 mi Calm Calm - N/A   Clear
2:15 PM 80.6 °F 81.1 °F 59.4 °F 48% 30.01 in 10.0 mi West 3.5 mph - N/A   Clear
2:35 PM 81.3 °F 81.7 °F 59.4 °F 47% 30.00 in 10.0 mi WNW 8.1 mph - N/A   Clear
2:55 PM 81.1 °F 81.4 °F 58.5 °F 46% 29.99 in 10.0 mi West 3.5 mph - N/A   Clear
3:15 PM 81.9 °F 82.2 °F 59.5 °F 47% 29.99 in 10.0 mi WNW 11.5 mph - N/A   Clear
3:35 PM 82.4 °F 82.5 °F 59.4 °F 45% 29.99 in 10.0 mi West 3.5 mph - N/A   Clear
3:55 PM 82.8 °F 83.0 °F 59.9 °F 46% 29.99 in 10.0 mi NNW 5.8 mph - N/A   Clear
4:15 PM 82.2 °F 82.4 °F 59.4 °F 46% 29.98 in 10.0 mi North - - N/A   Clear
4:35 PM 81.7 °F 81.9 °F 59.0 °F 46% 29.98 in 10.0 mi WNW 5.8 mph - N/A   Clear
4:55 PM 81.0 °F 81.5 °F 59.5 °F 48% 29.98 in 10.0 mi WNW 6.9 mph - N/A   Clear
5:15 PM 80.4 °F 81.2 °F 60.1 °F 50% 29.98 in 10.0 mi NNW 4.6 mph - N/A   Clear
5:35 PM 80.1 °F 80.9 °F 60.1 °F 50% 29.98 in 10.0 mi NW 5.8 mph - N/A   Clear
5:55 PM 79.9 °F - 60.3 °F 51% 29.98 in 10.0 mi WNW 6.9 mph - N/A   Clear
6:15 PM 79.0 °F - 61.0 °F 54% 29.98 in 10.0 mi West 3.5 mph - N/A   Clear
6:35 PM 77.2 °F - 61.7 °F 59% 29.99 in 10.0 mi Calm Calm - N/A   Clear
6:55 PM 73.0 °F - 62.4 °F 69% 29.99 in 10.0 mi Calm Calm - N/A   Scattered Clouds
7:15 PM 70.0 °F - 62.4 °F 77% 29.99 in 10.0 mi Calm Calm - N/A   Scattered Clouds
7:35 PM 68.2 °F - 62.4 °F 82% 29.99 in 10.0 mi Calm Calm - N/A   Clear
7:55 PM 66.2 °F - 62.2 °F 87% 30.00 in 10.0 mi Calm Calm - N/A   Clear
8:15 PM 64.9 °F - 61.9 °F 90% 30.01 in 10.0 mi Calm Calm - N/A   Clear
8:35 PM 63.7 °F - 61.9 °F 94% 30.01 in 10.0 mi Calm Calm - N/A   Clear
8:55 PM 62.6 °F - 61.2 °F 95% 30.01 in 10.0 mi Calm Calm - N/A   Clear
9:15 PM 61.2 °F - 61.0 °F 99% 30.01 in 10.0 mi Calm Calm - N/A   Clear
9:35 PM 60.8 °F - 60.8 °F 100% 30.02 in 10.0 mi Calm Calm - N/A   Clear
9:55 PM 60.4 °F - 60.1 °F 99% 30.03 in 10.0 mi Calm Calm - N/A   Clear
10:15 PM 59.4 °F - 59.4 °F 100% 30.03 in 10.0 mi Calm Calm - N/A   Clear
10:35 PM 59.0 °F - 59.0 °F 100% 30.03 in 10.0 mi Calm Calm - N/A   Clear
10:55 PM 58.5 °F - 58.5 °F 100% 30.03 in 10.0 mi Calm Calm - N/A   Clear
11:15 PM 58.3 °F - 58.3 °F 100% 30.03 in 10.0 mi Calm Calm - N/A   Clear
11:35 PM 57.6 °F - 57.6 °F 100% 30.03 in 10.0 mi Calm Calm - N/A   Clear
11:55 PM 57.4 °F - 57.4 °F 100% 30.03 in 10.0 mi Calm Calm - N/A   Clear